Location: Tierra del Sol
(32.6128°N, 116.3319°W)
Time: 11:30:23
(UTC-07:00)

Hubble Space Telescope - Pass Details

Date: 11 October 2017
Orbit: 537 x 541 km, 28.5° (Epoch: 19 October)

Event Time Altitude Azimuth Distance (km) Brightness Sun altitude
Exits shadow 05:09:39 23° 186° (S) 1,167 2.3 -21.2°
Drops below altitude 10° 05:12:28 10° 144° (SE) 1,785 3.8 -20.6°
Sets 05:15:02 0° 130° (SE) 2,675 5.0 -20.1°
